COSMOS 2500 (755)

Last updated on Wed Sep 09 2026 00:03:24 GMT+0000 (Coordinated Universal Time)

1 40001U 14032A 26251.09649671 -.00000026 00000+0 00000+0 0 9990 2 40001 65.1795 310.8561 0009472 202.9574 157.0758 2.13105880 95224
UTC large
Height (km)
Speed (km/s)
/
Latitude / Longitude
Inclination (degrees)
Orbital Period (minutes)
Azimuth
Elevation
Range (km)
Doppler Factor

Next 0 passes for location: London (51.5072 / 0.1276)

No passes found over London.
COSMOS 2500 (755)